Date String (YYYY-MM-DD hh:mm:ss) UTC,Instrument flags,Ambient pressure (hPa),Sample flow (lpm),Bypass flow (lpm),Sample temperature (°C),Ambient temperature (°C),ASC tube jacket temperature (°C),LED temperature (°C),Box temperature (°C),Sample RH (%),Span deviation,Mass concentration (μg/m³),Mass concentration (μg/m³),Mass concentration (μg/m³)
DateTimeUTC,F1_M11,P_M11,Q1_M11,Q2_M11,T1_M11,T2_M11,T3_M11,T4_M11,T5_M11,U1_M11,ZSPAN_M11,X0_M11,X2_M11,X1_M11
2021-12-01 01:00:00,,0825.2,5.00,0.00,28.3,27.4,00.0,37.3,30.0,10.2,0000.0,0019.20,0004.08,0002.61
2021-12-01 01:01:00,,0825.2,5.00,0.00,28.3,27.4,00.0,37.3,30.1,10.2,0000.0,0020.64,0004.52,0003.07
2021-12-01 01:02:00,,0825.2,5.00,0.00,28.3,27.4,00.0,37.3,30.1,10.2,0000.0,0022.44,0004.97,0003.37
2021-12-01 01:03:00,,0825.2,5.01,0.00,28.3,27.5,00.0,37.3,30.1,10.1,0000.0,0023.33,0005.36,0003.61
2021-12-01 01:04:00,,0825.1,4.99,0.00,28.3,27.5,00.0,37.3,30.1,10.2,0000.0,0024.40,0005.78,0003.84
2021-12-01 01:05:00,,0825.1,4.99,0.00,28.3,27.5,00.0,37.3,30.1,10.6,0000.0,0026.25,0006.31,0004.11
2021-12-01 01:06:00,,0825.2,5.01,0.00,28.3,27.5,00.0,37.3,30.1,10.7,0000.0,0028.21,0006.78,0004.42
2021-12-01 01:07:00,,0825.4,4.98,0.00,28.3,27.5,00.0,37.3,30.1,10.7,0000.0,0029.59,0007.08,0004.64
2021-12-01 01:08:00,,0825.4,5.00,0.00,28.3,27.5,00.0,37.3,30.1,10.6,0000.0,0027.71,0007.06,0004.70
2021-12-01 01:09:00,,0825.4,5.01,0.00,28.3,27.5,00.0,37.3,30.1,10.7,0000.0,0026.05,0007.02,0004.68
2021-12-01 01:10:00,,0825.3,5.01,0.00,28.3,27.5,00.0,37.3,30.1,10.7,0000.0,0025.95,0006.92,0004.68
2021-12-01 01:11:00,,0825.3,4.99,0.00,28.3,27.4,00.0,37.3,30.1,10.9,0000.0,0024.91,0006.89,0004.70
2021-12-01 01:12:00,,0825.4,5.00,0.00,28.3,27.4,00.0,37.3,30.0,11.0,0000.0,0025.26,0006.98,0004.76
2021-12-01 01:13:00,,0825.4,5.00,0.00,28.3,27.4,00.0,37.3,30.0,11.1,0000.0,0024.76,0007.02,0004.81
2021-12-01 01:14:00,,0825.4,4.99,0.00,28.3,27.3,00.0,37.3,30.0,11.1,0000.0,0025.15,0007.11,0004.87
2021-12-01 01:15:00,,0825.4,5.02,0.00,28.2,27.3,00.0,37.3,30.0,11.2,0000.0,0026.44,0007.16,0004.94
2021-12-01 01:16:00,,0825.4,4.98,0.00,28.2,27.3,00.0,37.3,29.9,11.3,0000.0,0025.83,0007.18,0005.02
2021-12-01 01:17:00,,0825.3,5.01,0.00,28.2,27.3,00.0,37.3,29.9,11.4,0000.0,0024.71,0007.19,0005.06
2021-12-01 01:18:00,,0825.5,4.99,0.00,28.2,27.2,00.0,37.3,29.9,11.5,0000.0,0024.38,0007.30,0005.14
2021-12-01 01:19:00,,0825.6,5.01,0.00,28.1,27.2,00.0,37.3,29.8,11.5,0000.0,0024.41,0007.41,0005.25
2021-12-01 01:20:00,,0825.5,4.98,0.00,28.1,27.2,00.0,37.2,29.8,11.5,0000.0,0024.94,0007.51,0005.34
2021-12-01 01:21:00,,0825.5,5.02,0.00,28.1,27.2,00.0,37.2,29.8,11.6,0000.0,0024.15,0007.66,0005.46
2021-12-01 01:22:00,,0825.4,5.00,0.00,28.1,27.2,00.0,37.2,29.8,11.6,0000.0,0023.40,0007.72,0005.56
2021-12-01 01:23:00,,0825.4,5.00,0.00,28.0,27.1,00.0,37.2,29.7,11.7,0000.0,0023.09,0007.77,0005.67
2021-12-01 01:24:00,,0825.5,5.00,0.00,28.0,27.1,00.0,37.2,29.7,11.8,0000.0,0024.94,0007.85,0005.78
2021-12-01 01:25:00,,0825.7,5.01,0.00,28.0,27.0,00.0,37.1,29.7,11.8,0000.0,0027.69,0007.94,0005.88
2021-12-01 01:26:00,,0825.6,5.01,0.00,27.9,27.0,00.0,37.1,29.7,11.8,0000.0,0027.21,0008.10,0005.97
2021-12-01 01:27:00,,0825.6,4.98,0.00,27.9,27.0,00.0,37.1,29.6,11.8,0000.0,0027.24,0008.17,0006.07
2021-12-01 01:28:00,,0825.7,5.02,0.00,27.9,27.0,00.0,37.1,29.6,11.8,0000.0,0029.22,0008.29,0006.15
2021-12-01 01:29:00,,0826.1,5.01,0.00,27.9,27.0,00.0,37.1,29.6,11.8,0000.0,0029.98,0008.37,0006.18
2021-12-01 01:30:00,,0825.8,4.99,0.00,27.9,27.0,00.0,37.0,29.6,11.8,0000.0,0031.44,0008.51,0006.24
2021-12-01 01:31:00,,0825.9,5.00,0.00,27.9,27.0,00.0,37.0,29.6,11.8,0000.0,0032.18,0008.58,0006.30
2021-12-01 01:32:00,,0826.0,4.99,0.00,27.9,27.0,00.0,37.0,29.6,11.8,0000.0,0033.13,0008.66,0006.36
2021-12-01 01:33:00,,0826.0,5.01,0.00,27.9,27.0,00.0,37.0,29.6,11.9,0000.0,0032.65,0008.74,0006.43
2021-12-01 01:34:00,,0826.0,4.99,0.00,27.9,27.1,00.0,37.0,29.6,11.9,0000.0,0032.94,0008.86,0006.48
2021-12-01 01:35:00,,0826.2,5.01,0.00,27.9,27.1,00.0,37.0,29.6,11.9,0000.0,0032.47,0009.01,0006.54
2021-12-01 01:36:00,,0826.2,4.99,0.00,27.9,27.1,00.0,37.0,29.6,11.9,0000.0,0030.31,0009.20,0006.61
2021-12-01 01:37:00,,0826.1,5.02,0.00,27.9,27.0,00.0,37.0,29.6,11.9,0000.0,0030.33,0009.33,0006.65
2021-12-01 01:38:00,,0826.1,5.00,0.00,27.9,27.0,00.0,37.0,29.6,11.9,0000.0,0032.18,0009.52,0006.69
2021-12-01 01:39:00,,0826.2,4.99,0.00,27.9,27.0,00.0,36.9,29.6,11.9,0000.0,0031.68,0009.62,0006.75
2021-12-01 01:40:00,,0826.2,5.01,0.00,27.9,27.0,00.0,36.9,29.6,11.9,0000.0,0032.47,0009.65,0006.81
2021-12-01 01:41:00,,0826.2,4.99,0.00,27.9,27.0,00.0,36.9,29.6,12.0,0000.0,0031.92,0009.71,0006.85
2021-12-01 01:42:00,,0826.2,4.99,0.00,27.9,27.0,00.0,36.9,29.6,12.0,0000.0,0033.31,0009.81,0006.88
2021-12-01 01:43:00,,0826.2,5.01,0.00,27.9,27.0,00.0,36.9,29.6,12.0,0000.0,0033.07,0009.86,0006.90
2021-12-01 01:44:00,,0826.1,5.01,0.00,27.9,27.0,00.0,36.9,29.6,12.0,0000.0,0033.48,0009.97,0006.93
2021-12-01 01:45:00,,0826.2,4.99,0.00,27.9,27.0,00.0,36.9,29.6,12.0,0000.0,0034.74,0010.10,0006.95
2021-12-01 01:46:00,,0826.3,5.00,0.00,27.9,27.0,00.0,36.9,29.6,12.0,0000.0,0035.68,0010.14,0006.96
2021-12-01 01:47:00,,0826.2,5.00,0.00,27.9,27.0,00.0,36.9,29.7,12.1,0000.0,0036.68,0010.14,0006.97
2021-12-01 01:48:00,,0826.2,5.00,0.00,27.9,27.1,00.0,36.9,29.7,12.1,0000.0,0038.96,0010.07,0006.99
2021-12-01 01:49:00,,0826.3,5.00,0.00,27.9,27.1,00.0,36.9,29.7,12.1,0001.7,0037.69,0010.03,0007.00
2021-12-01 01:50:00,,0826.3,5.01,0.00,27.9,27.1,00.0,36.9,29.7,12.1,0001.6,0037.40,0010.11,0007.02
2021-12-01 01:51:00,,0826.3,5.00,0.00,27.9,27.1,00.0,36.9,29.7,12.1,0002.3,0036.25,0010.21,0007.01
2021-12-01 01:52:00,,0826.3,4.99,0.00,27.9,27.1,00.0,36.9,29.7,12.1,0001.7,0036.11,0010.25,0007.02
2021-12-01 01:53:00,,0826.4,5.01,0.00,27.9,27.1,00.0,36.9,29.6,12.1,0000.0,0034.41,0010.27,0007.03
2021-12-01 01:54:00,,0826.4,5.00,0.00,27.9,27.1,00.0,36.9,29.6,12.1,0000.0,0034.31,0010.26,0007.03
2021-12-01 01:55:00,,0826.5,5.00,0.00,27.9,27.0,00.0,36.9,29.6,12.2,0000.1,0033.99,0010.24,0007.03
2021-12-01 01:56:00,,0826.5,4.98,0.00,27.9,27.0,00.0,36.9,29.6,12.1,0001.7,0033.00,0010.22,0007.04
2021-12-01 01:57:00,,0826.5,5.00,0.00,27.9,27.0,00.0,36.9,29.6,12.1,0002.0,0032.42,0010.19,0007.04
2021-12-01 01:58:00,,0826.5,5.00,0.00,27.9,27.0,00.0,36.9,29.7,12.2,0001.9,0032.58,0010.14,0007.04
2021-12-01 01:59:00,,0826.5,5.01,0.00,27.9,27.0,00.0,36.9,29.7,12.2,0000.6,0030.27,0010.14,0007.01
